IRIDIUM 14 [-]

Last updated on March 16, 2019, 3:11 a.m. UTC

1 25777U 99032A   19074.08354465  .24198670 -21513-5  30975-3 0  9999
2 25777  86.6237 317.2805 0065381 126.3710 235.2347 16.40952513 46070

Satellite is not in orbit.